[[{"header":{"parameterUnit":"m.s-1","parameterCategory":1,"la1":30.2991,"la2":30.254,"lo1":-89.0895,"lo2":-89.0444,"dy":0.0017,"dx":0.0017,"nx":28,"ny":28,"refTime":"2025-09-11T21:00:00:Z","depth":0,"parameterNumber":2,"parameterNumberName":"U-component_of_WINDS"},"data":[0,0,0,0,0,0,0,0,0,0,0,0,0,0,0,0,0,0,0,0,0,0,0,0,0,0,0,0,0,0,0,0,0,0,0,0,0,0,0,0,0,0,0,0,0,0,0,0,0,0,0,0,0,0,0,0,0,0,-0.1482,-0.1481,0,-0.1361,-0.136,-0.1358,-0.1358,-0.1359,-0.1361,-0.1362,-0.1236,-0.1231,-0.1227,0,0,0,0,0,0,0,0,0,0,0,0,0,-0.1711,-0.1707,-0.1482,-0.1481,-0.1479,-0.1361,-0.136,-0.1358,-0.1357,-0.1359,-0.1361,-0.1363,-0.1238,-0.1232,-0.1226,0,0,0,0,0,0,0,0,0,0,0,0,0,-0.1603,-0.1705,-0.1482,-0.1465,-0.1462,-0.1362,-0.136,-0.1358,-0.1357,-0.1359,-0.1362,-0.1364,-0.124,-0.1233,-0.1226,-0.1135,0,0,-0.1204,-0.12,0,0,0,0,0,0,0,0,-0.1609,-0.1594,-0.1469,-0.1466,-0.1462,-0.1377,-0.1394,-0.1283,-0.1356,-0.1397,-0.1362,-0.1365,-0.1281,-0.1271,-0.1243,-0.1129,-0.1123,-0.1203,-0.1199,-0.1195,-0.1193,0,0,0,0,0,0,0,-0.1616,-0.16,-0.1434,-0.1467,-0.1463,-0.1462,-0.1449,-0.1373,-0.1327,-0.1393,-0.1393,-0.1379,-0.128,-0.125,-0.124,-0.1121,-0.1203,-0.1197,-0.1192,-0.1189,-0.0928,-0.0926,0,0,0,0,0,0,-0.1628,-0.1606,-0.1438,-0.1431,-0.1543,-0.1456,-0.1442,-0.1402,-0.1328,-0.1319,-0.1377,-0.1379,-0.1261,-0.1248,-0.1235,-0.1125,-0.1195,-0.1189,-0.1185,-0.0931,-0.0928,-0.0925,0,0,0,0,0,0,-0.1633,-0.1613,-0.1443,-0.1518,-0.1496,-0.145,-0.1405,-0.1398,-0.1368,-0.1316,-0.1307,-0.1355,-0.1262,-0.1245,-0.116,-0.112,-0.1185,-0.1179,-0.0934,-0.093,-0.0926,-0.0903,0,0,0,0,0,0,-0.1639,-0.1615,-0.158,-0.1517,-0.1492,-0.137,-0.1402,-0.1394,-0.1356,-0.1358,-0.1293,-0.1284,-0.1263,-0.1171,-0.1153,-0.1112,-0.1173,-0.0937,-0.0932,-0.0927,-0.0907,-0.0899,-0.0892,0,0,0,0,0,-0.1647,-0.1577,-0.1578,-0.1558,-0.1448,-0.1368,-0.1353,-0.1331,-0.1353,-0.1318,-0.1284,-0.1286,-0.1128,-0.1162,-0.1142,-0.1098,-0.094,-0.0933,-0.0928,-0.091,-0.09,-0.0892,0,0,0,0,0,0,-0.1635,-0.1569,-0.1569,-0.1476,-0.1428,-0.1368,-0.1322,-0.1321,-0.1264,-0.1268,-0.1242,-0.1227,-0.1142,-0.1111,-0.1151,-0.1007,-0.1036,-0.1026,-0.103,-0.102,-0.1012,-0.1022,-0.1167,0,0,0,0,0,-0.1622,-0.1563,-0.1508,-0.1431,-0.1407,-0.1369,-0.1333,-0.132,-0.1268,-0.1248,-0.1208,-0.1157,-0.1096,-0.1056,-0.0997,-0.0903,-0.0889,-0.0862,-0.0855,-0.0849,-0.084,-0.0789,-0.0777,-0.0905,-0.0905,-0.0905,0,0,-0.1593,-0.155,-0.1514,-0.1428,-0.1389,-0.1328,-0.1352,-0.1286,-0.1241,-0.1237,-0.1155,-0.1124,-0.1066,-0.0976,-0.0934,-0.0947,-0.0802,-0.0841,-0.0837,-0.0831,-0.0782,-0.077,-0.0759,-0.0901,-0.0902,-0.0903,0,0,-0.1511,-0.1472,-0.1405,-0.1365,-0.1306,-0.1281,-0.1265,-0.1205,-0.1185,-0.1102,-0.1099,-0.1044,-0.0939,-0.0898,-0.0864,-0.0767,-0.0767,-0.0749,-0.0708,-0.0659,-0.0649,-0.064,-0.0606,-0.0594,-0.074,-0.074,-0.074,0,-0.1483,-0.1392,-0.137,-0.1305,-0.1267,-0.1263,-0.1194,-0.1157,-0.1081,-0.1055,-0.1072,-0.0941,-0.0901,-0.0802,-0.0779,-0.0751,-0.0732,-0.0756,-0.0652,-0.0643,-0.0634,-0.0602,-0.0589,-0.0738,-0.0739,-0.0739,-0.0739,0,-0.1361,-0.1297,-0.125,-0.1179,-0.1136,-0.1069,-0.1037,-0.0996,-0.0987,-0.0961,-0.0877,-0.0829,-0.0761,-0.0737,-0.0726,-0.0636,-0.0647,-0.0658,-0.0687,-0.062,-0.059,-0.0577,-0.0736,-0.0736,-0.0737,-0.0737,0,0,-0.1266,-0.1184,-0.1168,-0.1136,-0.107,-0.1021,-0.0954,-0.0889,-0.0855,-0.0803,-0.0747,-0.0659,-0.0669,-0.063,-0.0615,-0.0572,-0.0499,-0.0588,-0.0586,-0.0574,-0.0399,-0.0391,-0.0377,-0.0499,-0.0497,-0.0495,-0.0404,0,-0.1177,-0.106,-0.1039,-0.0936,-0.0878,-0.0874,-0.0816,-0.077,-0.0743,-0.069,-0.0661,-0.0599,-0.0617,-0.0593,-0.055,-0.0517,-0.0464,-0.0524,-0.0447,-0.0445,-0.0463,-0.0361,-0.0353,-0.0269,-0.0392,-0.0389,-0.0388,0,-0.1058,-0.1004,-0.0896,-0.084,-0.0815,-0.0763,-0.0702,-0.0651,-0.0599,-0.0583,-0.054,-0.0531,-0.0462,-0.0494,-0.0399,-0.044,-0.0408,-0.0387,-0.0383,-0.0375,-0.0413,-0.0351,-0.0242,-0.023,-0.0369,-0.037,-0.0372,0,-0.1001,-0.0902,-0.0825,-0.0797,-0.073,-0.0694,-0.0664,-0.0614,-0.0576,-0.0522,-0.0498,-0.0436,-0.0403,-0.0355,-0.033,-0.0356,-0.0237,-0.0267,-0.0222,-0.0223,-0.0198,-0.02,-0.0082,-0.0176,-0.0176,-0.0176,-0.0176,0,-0.0905,-0.0839,-0.0799,-0.0751,-0.0678,-0.0654,-0.0582,-0.0553,-0.0508,-0.0455,-0.0447,-0.0397,-0.0366,-0.0312,-0.0292,-0.0217,-0.0201,-0.0187,-0.0182,-0.0188,-0.019,-0.0167,-0.0172,-0.0173,-0.0173,-0.0174,-0.0175,0,-0.0829,-0.0799,-0.0715,-0.0659,-0.0643,-0.0591,-0.0543,-0.0496,-0.0471,-0.0404,-0.0387,-0.0346,-0.0282,-0.0252,-0.0172,-0.0159,-0.0074,-0.0073,-0.0092,-0.009,-0.0048,-0.0053,0.0088,0.0108,0.0002,0.0003,0.0004,0,-0.077,-0.0719,-0.0658,-0.0622,-0.0592,-0.0534,-0.0496,-0.047,-0.0431,-0.0368,-0.033,-0.0266,-0.0213,-0.0111,-0.0075,-0.0014,-0.0012,0.0033,-0.0003,-0.0011,-0.0013,-0.0016,-0.0012,0.004,0.0041,0.0041,0.0042,0,-0.0668,-0.0656,-0.0602,-0.0542,-0.0497,-0.0449,-0.0401,-0.0373,-0.034,-0.0296,-0.0231,-0.019,-0.011,-0.0047,0.0016,0.0047,0.005,0.0053,0.0066,0.0061,0.0047,0.0054,-0.0075,0.005,0.0049,0.0048,0.0048,0.0048,-0.06,-0.0555,-0.0505,-0.0445,-0.0407,-0.0363,-0.0317,-0.0286,-0.0232,-0.0165,-0.0153,-0.0084,-0.0034,0.005,0.0083,0.0137,0.0127,0.0146,0.0151,0.0155,0.0157,0.0039,0.0149,0.0149,0.0149,0.0148,0.0148,0,-0.0499,-0.0466,-0.0411,-0.0346,-0.0299,-0.0301,-0.0249,-0.0209,-0.0149,-0.0102,-0.0051,0.0023,0.0084,0.0125,0.0187,0.0222,0.0225,0.0237,0.0235,0.0241,0.0164,0.0145,0.0234,0.0234,0.0234,0.0234,0.0234,0.0234,-0.0441,-0.0366,-0.0348,-0.0255,-0.0223,-0.0156,-0.0126,-0.0086,-0.0049,0.0033,0.0084,0.011,0.0154,0.0219,0.0275,0.0285,0.0307,0.032,0.033,0.0256,0.0247,0.0239,0.0221,0.0325,0.0325,0.0403,0.0404,0.0404]},{"header":{"parameterUnit":"m.s-1","parameterCategory":1,"la1":30.2991,"la2":30.254,"lo1":-89.0895,"lo2":-89.0444,"dy":0.0017,"dx":0.0017,"nx":28,"ny":28,"refTime":"2025-09-11T21:00:00:Z","depth":0,"parameterNumber":3,"parameterNumberName":"V-component_of_WINDS"},"data":[0,0,0,0,0,0,0,0,0,0,0,0,0,0,0,0,0,0,0,0,0,0,0,0,0,0,0,0,0,0,0,0,0,0,0,0,0,0,0,0,0,0,0,0,0,0,0,0,0,0,0,0,0,0,0,0,0,0,0.4716,0.4717,0,0.4753,0.4753,0.4754,0.4676,0.4674,0.4671,0.4669,0.4708,0.4711,0.4715,0,0,0,0,0,0,0,0,0,0,0,0,0,0.4579,0.4582,0.4716,0.4717,0.4717,0.4753,0.4753,0.4754,0.4677,0.4674,0.4671,0.4668,0.4707,0.4711,0.4715,0,0,0,0,0,0,0,0,0,0,0,0,0,0.463,0.4583,0.4716,0.4683,0.4681,0.4753,0.4753,0.4754,0.4678,0.4674,0.467,0.4666,0.4706,0.4711,0.4716,0.4822,0,0,0.4731,0.4733,0,0,0,0,0,0,0,0,0.4627,0.4635,0.4688,0.4686,0.4683,0.4706,0.4719,0.4777,0.4678,0.4679,0.4669,0.4665,0.4711,0.4715,0.473,0.4824,0.4826,0.4732,0.4735,0.4737,0.4738,0,0,0,0,0,0,0,0.4623,0.4633,0.4731,0.4688,0.4686,0.4666,0.4669,0.473,0.4716,0.4678,0.4673,0.4678,0.4709,0.4726,0.4731,0.4826,0.4731,0.4736,0.4739,0.4741,0.5004,0.5008,0,0,0,0,0,0,0.4624,0.463,0.473,0.4732,0.4645,0.4672,0.4675,0.4703,0.4715,0.4713,0.4681,0.4674,0.4719,0.4725,0.4732,0.4853,0.4737,0.4742,0.4744,0.5,0.5005,0.5009,0,0,0,0,0,0,0.4621,0.4634,0.4728,0.468,0.469,0.4678,0.471,0.4705,0.4722,0.4717,0.4714,0.4701,0.4716,0.4725,0.4799,0.4853,0.4744,0.4748,0.4996,0.5002,0.5007,0.5099,0,0,0,0,0,0,0.4618,0.4633,0.4674,0.4681,0.4693,0.4796,0.4713,0.4709,0.4731,0.4722,0.4735,0.4733,0.4714,0.4792,0.4804,0.4858,0.4752,0.4991,0.4998,0.5005,0.5091,0.5108,0.5122,0,0,0,0,0,0.4613,0.47,0.4677,0.4689,0.4744,0.4799,0.4806,0.4781,0.4736,0.4776,0.4772,0.4733,0.4846,0.48,0.4813,0.487,0.4987,0.4996,0.5005,0.5085,0.5105,0.5121,0,0,0,0,0,0,0.4702,0.4701,0.4674,0.4767,0.4783,0.4786,0.4836,0.4804,0.4835,0.4825,0.4794,0.4797,0.4877,0.4881,0.483,0.4971,0.4909,0.4921,0.4965,0.4984,0.4999,0.4995,0.4757,0,0,0,0,0,0.4732,0.4777,0.4773,0.4855,0.4864,0.4849,0.4872,0.4851,0.4868,0.4875,0.4876,0.4894,0.4932,0.4959,0.4995,0.5093,0.5092,0.5138,0.5153,0.5165,0.5175,0.5222,0.5241,0.5038,0.5038,0.5038,0,0,0.4795,0.48,0.483,0.4873,0.4883,0.4928,0.4855,0.4908,0.4941,0.4883,0.4951,0.4954,0.4971,0.5056,0.5093,0.5062,0.5231,0.5177,0.5187,0.519,0.5233,0.5252,0.5269,0.5044,0.5043,0.5042,0,0,0.4932,0.4942,0.5008,0.5019,0.5035,0.5023,0.5039,0.5046,0.5044,0.5113,0.5068,0.5108,0.5177,0.5189,0.5205,0.5343,0.5306,0.5356,0.5434,0.548,0.5496,0.551,0.5555,0.5572,0.5366,0.5366,0.5367,0,0.5008,0.5074,0.5046,0.51,0.5118,0.5066,0.5132,0.5144,0.5172,0.5185,0.515,0.5232,0.5241,0.5325,0.5359,0.5375,0.539,0.5353,0.5496,0.551,0.5522,0.5565,0.5582,0.5372,0.5371,0.5371,0.537,0,0.5165,0.5212,0.5264,0.5288,0.5313,0.5373,0.5352,0.5381,0.5358,0.535,0.5418,0.5426,0.546,0.548,0.5459,0.5561,0.554,0.5501,0.5437,0.5548,0.5586,0.5603,0.538,0.5378,0.5376,0.5375,0,0,0.5359,0.5365,0.5384,0.5392,0.5404,0.544,0.5497,0.5528,0.5551,0.5572,0.5616,0.5675,0.5637,0.5655,0.5635,0.5676,0.5779,0.5631,0.5631,0.5655,0.5886,0.5913,0.5932,0.5756,0.5759,0.5762,0.5883,0,0.549,0.5585,0.556,0.5655,0.5695,0.5645,0.5693,0.5706,0.5699,0.5733,0.5726,0.5766,0.5716,0.5725,0.5764,0.5758,0.5824,0.575,0.5795,0.5797,0.5788,0.5953,0.5982,0.6096,0.5899,0.5902,0.5904,0,0.5657,0.568,0.5778,0.5779,0.5795,0.5839,0.5864,0.5897,0.5909,0.5902,0.592,0.589,0.5944,0.5882,0.5954,0.5903,0.5921,0.592,0.5924,0.5924,0.5854,0.5954,0.6133,0.6149,0.5928,0.5926,0.5925,0,0.5782,0.5839,0.5903,0.5913,0.5917,0.5948,0.5952,0.596,0.5979,0.6002,0.6014,0.6043,0.6059,0.6082,0.606,0.6017,0.6134,0.6071,0.6127,0.6127,0.6151,0.6149,0.6331,0.6169,0.6169,0.6169,0.6168,0,0.5929,0.599,0.5958,0.5998,0.6063,0.6034,0.6099,0.6097,0.6104,0.6141,0.6102,0.6137,0.6109,0.6142,0.6126,0.6185,0.6194,0.6187,0.6181,0.6189,0.6189,0.6197,0.6187,0.6173,0.6172,0.6171,0.617,0,0.6079,0.6061,0.6127,0.6125,0.6125,0.6174,0.6171,0.6207,0.6197,0.6244,0.6253,0.6238,0.6274,0.6256,0.6295,0.6283,0.6359,0.6345,0.6354,0.6349,0.6404,0.6397,0.6594,0.6616,0.6444,0.6446,0.6447,0,0.6173,0.6217,0.6218,0.6239,0.6245,0.628,0.6298,0.6271,0.6292,0.6307,0.634,0.6372,0.6396,0.6456,0.6448,0.6477,0.646,0.6527,0.6464,0.6468,0.6456,0.6451,0.6454,0.6539,0.6541,0.6543,0.6544,0,0.6338,0.6326,0.6354,0.6377,0.64,0.6418,0.6433,0.6453,0.6425,0.645,0.6485,0.6504,0.6541,0.6573,0.6597,0.66,0.6566,0.6564,0.6577,0.6583,0.6585,0.658,0.6384,0.6559,0.6557,0.6556,0.6556,0.6555,0.6459,0.6495,0.65,0.6531,0.6538,0.6552,0.6584,0.6576,0.6605,0.6632,0.6614,0.6655,0.6663,0.6691,0.6698,0.6729,0.6702,0.6723,0.6727,0.6732,0.6737,0.6583,0.6734,0.6733,0.6733,0.6732,0.6732,0,0.6619,0.6618,0.6648,0.6667,0.6691,0.6657,0.6671,0.6693,0.6729,0.6738,0.6762,0.6801,0.683,0.6824,0.685,0.6876,0.6861,0.6884,0.6879,0.688,0.6762,0.6745,0.6895,0.6895,0.6895,0.6895,0.6895,0.6895,0.6704,0.676,0.6748,0.6807,0.6807,0.6845,0.6855,0.6867,0.6873,0.6918,0.6941,0.6937,0.6939,0.6965,0.699,0.6987,0.6997,0.7024,0.7016,0.6905,0.6889,0.6873,0.6857,0.7028,0.7028,0.713,0.7131,0.7132]}]]